Simultaneous Nadir Overpasses (SNOs) Predictions

Prediction of SNOs between AQUA and NOAA-19 Satellite Orbit:

Table of predicted SNOs for the next 14.0 days since TLE Epoch: 9/21/2013
Index Date (AQUA) Time (AQUA) Lat,Lon (AQUA) SZA (AQUA ) Date (NOAA-19) Time (NOAA-19) Lat,Lon (NOAA-19) SZA (NOAA-19 ) Distance(km) Time Diff (sec)
1 09/21/2013 11:08:39 -64.59,-160.86 115.82 09/21/2013 11:08:03 -64.59,-160.88 115.83 0.99 36
2 09/21/2013 11:56:04 57.46, 11.88 57.66 09/21/2013 11:57:04 57.45, 11.90 57.70 1.31 60
3 09/23/2013 15:53:05 -65.02, 127.68 114.55 09/23/2013 15:52:25 -65.02, 127.66 114.56 1.20 40
4 09/23/2013 16:40:31 57.96, -59.50 58.99 09/23/2013 16:41:27 57.95, -59.47 59.02 1.88 56
5 09/25/2013 20:37:27 -65.23, 56.41 113.49 09/25/2013 20:36:43 -65.23, 56.40 113.50 0.32 44
6 09/25/2013 21:25:14 59.40,-131.47 61.16 09/25/2013 21:26:07 59.41,-131.49 61.19 1.19 53
7 09/28/2013 01:21:45 -65.23, -14.67 112.62 09/28/2013 01:20:57 -65.23, -14.63 112.64 1.73 48
8 09/28/2013 02:09:34 59.52, 157.38 62.14 09/28/2013 02:10:23 59.52, 157.39 62.17 0.69 49
9 09/30/2013 06:06:14 -65.87, -86.36 111.16 09/30/2013 06:05:23 -65.87, -86.35 111.17 0.16 51
10 09/30/2013 06:54:09 60.53, 85.63 63.93 09/30/2013 06:54:55 60.54, 85.62 63.95 1.12 46
11 10/02/2013 10:50:39 -66.30,-157.85 109.90 10/02/2013 10:49:45 -66.30,-157.86 109.91 0.39 54
12 10/02/2013 11:38:22 60.28, 14.73 64.56 10/02/2013 11:39:04 60.27, 14.77 64.58 2.25 42
13 10/04/2013 15:35:00 -66.51, 130.85 108.84 10/04/2013 15:34:03 -66.51, 130.86 108.85 0.23 57




NCC Satellite Simultaneous Nadir Overpasses (SNOs) Prediction Service
